When you browse on this site, cookies collect data to enhance your experience and personalize the content and advertising you see.
Visit our Privacy Policy to learn more. By continuing to use the site, you agree to this use of cookies and data.
  • In Czech Republic
  • List of Countries
  • For 7 days
  • Water Temperature
  • Satellite Maps
  • Weather Map
  • Weather Widgets
  • user-avatar
    Login

    Hourly Weather Al-Jadida

    Today, 20 April, Saturday

    Time Temperature Precipitation Wind Pressure Humidity
    00:00 +15°C° 0.8 mm 2 mps 759 mmHg 88%
    01:00 +15°C° 0.8 mm 2 mps 759 mmHg 87%
    02:00 +15°C° 0.8 mm 2 mps 758 mmHg 86%
    03:00 +15°C° 0.2 mm 2 mps 758 mmHg 87%
    04:00 +14°C° 0.2 mm 2 mps 758 mmHg 89%
    05:00 +13°C° 0 mm 2 mps 758 mmHg 91%
    06:00 +15°C° 0.3 mm 2 mps 758 mmHg 83%
    07:00 +16°C° 0.3 mm 3 mps 758 mmHg 76%
    08:00 +18°C° 0.3 mm 3 mps 758 mmHg 68%
    09:00 +19°C° 0.2 mm 4 mps 758 mmHg 64%
    10:00 +20°C° 0.2 mm 5 mps 758 mmHg 60%
    11:00 +21°C° 0.2 mm 6 mps 758 mmHg 56%
    12:00 +21°C° 0 mm 6 mps 758 mmHg 55%
    13:00 +21°C° 0 mm 7 mps 758 mmHg 54%
    14:00 +21°C° 0 mm 7 mps 757 mmHg 54%
    15:00 +20°C° 0 mm 7 mps 758 mmHg 58%
    16:00 +20°C° 0 mm 7 mps 758 mmHg 63%
    17:00 +19°C° 0 mm 6 mps 758 mmHg 67%
    18:00 +17°C° 0 mm 5 mps 758 mmHg 73%
    19:00 +16°C° 0 mm 5 mps 758 mmHg 78%
    20:00 +15°C° 0 mm 4 mps 759 mmHg 83%
    21:00 +16°C° 0 mm 3 mps 759 mmHg 85%
    22:00 +16°C° 0 mm 3 mps 759 mmHg 86%
    23:00 +14°C° 0 mm 3 mps 759 mmHg 88%

    Tomorrow, 21 April, Sunday

    Time Temperature Precipitation Wind Pressure Humidity
    00:00 +15°C° 0.1 mm 2 mps 758 mmHg 88%
    01:00 +15°C° 0.1 mm 2 mps 758 mmHg 89%
    02:00 +14°C° 0.1 mm 2 mps 757 mmHg 89%
    03:00 +14°C° 0 mm 2 mps 757 mmHg 89%
    04:00 +14°C° 0 mm 2 mps 757 mmHg 89%
    05:00 +14°C° 0 mm 1 mps 757 mmHg 89%
    06:00 +15°C° 0 mm 2 mps 757 mmHg 82%
    07:00 +17°C° 0 mm 3 mps 757 mmHg 74%
    08:00 +19°C° 0 mm 4 mps 757 mmHg 67%
    09:00 +20°C° 0 mm 4 mps 757 mmHg 63%
    10:00 +21°C° 0 mm 5 mps 757 mmHg 60%
    11:00 +22°C° 0 mm 5 mps 757 mmHg 56%
    12:00 +22°C° 0 mm 6 mps 757 mmHg 56%
    13:00 +22°C° 0 mm 6 mps 756 mmHg 56%
    14:00 +23°C° 0 mm 7 mps 756 mmHg 56%
    15:00 +22°C° 0 mm 6 mps 756 mmHg 62%
    16:00 +21°C° 0 mm 6 mps 756 mmHg 69%
    17:00 +20°C° 0 mm 5 mps 756 mmHg 75%
    18:00 +19°C° 0 mm 4 mps 756 mmHg 81%
    19:00 +18°C° 0 mm 3 mps 757 mmHg 88%
    20:00 +17°C° 0 mm 2 mps 757 mmHg 94%
    21:00 +17°C° 0 mm 2 mps 757 mmHg 94%
    22:00 +16°C° 0 mm 2 mps 757 mmHg 95%
    23:00 +16°C° 0 mm 2 mps 757 mmHg 96%

    Day after tomorrow, 22 April, Monday

    Time Temperature Precipitation Wind Pressure Humidity
    00:00 +16°C° 0 mm 2 mps 757 mmHg 96%
    01:00 +15°C° 0 mm 2 mps 756 mmHg 96%
    02:00 +15°C° 0 mm 2 mps 756 mmHg 97%
    03:00 +15°C° 0 mm 2 mps 756 mmHg 96%
    04:00 +15°C° 0 mm 2 mps 756 mmHg 95%
    05:00 +14°C° 0 mm 3 mps 755 mmHg 95%
    06:00 +17°C° 0 mm 3 mps 756 mmHg 86%
    07:00 +18°C° 0 mm 3 mps 756 mmHg 77%
    08:00 +20°C° 0 mm 3 mps 756 mmHg 68%
    09:00 +21°C° 0 mm 4 mps 756 mmHg 61%
    10:00 +22°C° 0 mm 4 mps 756 mmHg 54%
    11:00 +23°C° 0 mm 5 mps 756 mmHg 47%
    12:00 +23°C° 0 mm 5 mps 756 mmHg 47%
    13:00 +23°C° 0 mm 6 mps 756 mmHg 47%
    14:00 +23°C° 0 mm 6 mps 755 mmHg 47%
    15:00 +22°C° 0 mm 5 mps 755 mmHg 52%
    16:00 +21°C° 0 mm 5 mps 755 mmHg 57%
    17:00 +20°C° 0 mm 5 mps 755 mmHg 61%
    18:00 +19°C° 0 mm 4 mps 755 mmHg 70%
    19:00 +18°C° 0 mm 4 mps 756 mmHg 78%
    20:00 +17°C° 0 mm 3 mps 756 mmHg 87%
    21:00 +16°C° 0 mm 3 mps 756 mmHg 88%
    22:00 +16°C° 0 mm 3 mps 756 mmHg 89%
    23:00 +16°C° 0 mm 3 mps 756 mmHg 91%

    23 April, Tuesday

    Time Temperature Precipitation Wind Pressure Humidity
    00:00 +16°C° 0 mm 3 mps 756 mmHg 92%
    01:00 +16°C° 0 mm 3 mps 755 mmHg 93%
    02:00 +16°C° 0 mm 3 mps 755 mmHg 94%
    03:00 +14°C° 0 mm 4 mps 755 mmHg 93%
    04:00 +14°C° 0 mm 4 mps 755 mmHg 93%
    05:00 +14°C° 0 mm 4 mps 754 mmHg 93%
    06:00 +16°C° 0.4 mm 5 mps 755 mmHg 86%
    07:00 +17°C° 0.4 mm 5 mps 755 mmHg 78%
    08:00 +19°C° 0.4 mm 6 mps 755 mmHg 70%
    09:00 +17°C° 0.7 mm 6 mps 755 mmHg 74%
    10:00 +16°C° 0.7 mm 6 mps 756 mmHg 78%
    11:00 +15°C° 0.7 mm 6 mps 756 mmHg 82%
    12:00 +15°C° 0.2 mm 5 mps 756 mmHg 79%
    13:00 +15°C° 0.2 mm 5 mps 756 mmHg 77%
    14:00 +15°C° 0.2 mm 4 mps 756 mmHg 75%
    15:00 +15°C° 0 mm 4 mps 756 mmHg 71%
    16:00 +15°C° 0 mm 5 mps 757 mmHg 67%
    17:00 +16°C° 0 mm 5 mps 757 mmHg 63%
    18:00 +15°C° 0 mm 4 mps 758 mmHg 64%
    19:00 +14°C° 0 mm 4 mps 758 mmHg 66%
    20:00 +13°C° 0 mm 3 mps 759 mmHg 67%
    21:00 +13°C° 0 mm 3 mps 759 mmHg 68%
    22:00 +13°C° 0 mm 2 mps 759 mmHg 68%
    23:00 +13°C° 0 mm 2 mps 759 mmHg 68%

    24 April, Wednesday

    Time Temperature Precipitation Wind Pressure Humidity
    00:00 +13°C° 0 mm 2 mps 759 mmHg 69%
    01:00 +12°C° 0 mm 2 mps 759 mmHg 70%
    02:00 +12°C° 0 mm 1 mps 758 mmHg 71%
    03:00 +12°C° 0 mm 1 mps 759 mmHg 72%
    04:00 +11°C° 0 mm 1 mps 759 mmHg 74%
    05:00 +11°C° 0 mm 1 mps 759 mmHg 76%
    06:00 +13°C° 0 mm 1 mps 759 mmHg 67%
    07:00 +15°C° 0 mm 2 mps 760 mmHg 59%
    08:00 +17°C° 0 mm 2 mps 760 mmHg 51%
    09:00 +18°C° 0 mm 2 mps 760 mmHg 48%
    10:00 +19°C° 0 mm 3 mps 760 mmHg 46%
    11:00 +20°C° 0 mm 3 mps 761 mmHg 43%
    12:00 +20°C° 0 mm 4 mps 760 mmHg 44%
    13:00 +20°C° 0 mm 4 mps 760 mmHg 45%
    14:00 +21°C° 0 mm 5 mps 760 mmHg 46%
    15:00 +20°C° 0 mm 5 mps 760 mmHg 49%
    16:00 +19°C° 0 mm 4 mps 760 mmHg 52%
    17:00 +19°C° 0 mm 4 mps 761 mmHg 55%
    18:00 +18°C° 0 mm 3 mps 761 mmHg 60%
    19:00 +17°C° 0 mm 2 mps 762 mmHg 65%
    20:00 +16°C° 0 mm 2 mps 762 mmHg 70%
    21:00 +15°C° 0 mm 1 mps 762 mmHg 73%
    22:00 +15°C° 0 mm 1 mps 763 mmHg 76%
    23:00 +14°C° 0 mm 1 mps 763 mmHg 78%

    25 April, Thursday

    Time Temperature Precipitation Wind Pressure Humidity
    00:00 +14°C° 0 mm 1 mps 762 mmHg 80%
    01:00 +14°C° 0 mm 1 mps 762 mmHg 81%
    02:00 +12°C° 0 mm 0 mps 762 mmHg 82%
    03:00 +13°C° 0 mm 1 mps 762 mmHg 81%
    04:00 +13°C° 0 mm 2 mps 763 mmHg 81%
    05:00 +12°C° 0 mm 3 mps 763 mmHg 80%
    06:00 +15°C° 0 mm 2 mps 763 mmHg 71%
    07:00 +17°C° 0 mm 2 mps 763 mmHg 63%
    08:00 +19°C° 0 mm 2 mps 764 mmHg 55%
    09:00 +20°C° 0 mm 2 mps 764 mmHg 51%
    10:00 +22°C° 0 mm 3 mps 764 mmHg 47%
    11:00 +23°C° 0 mm 4 mps 764 mmHg 44%
    12:00 +23°C° 0 mm 5 mps 763 mmHg 45%
    13:00 +23°C° 0 mm 6 mps 763 mmHg 46%
    14:00 +23°C° 0 mm 7 mps 763 mmHg 47%
    15:00 +22°C° 0 mm 7 mps 763 mmHg 53%
    16:00 +21°C° 0 mm 7 mps 763 mmHg 58%
    17:00 +20°C° 0 mm 8 mps 763 mmHg 64%
    18:00 +18°C° 0 mm 8 mps 764 mmHg 72%
    19:00 +17°C° 0 mm 8 mps 764 mmHg 79%
    20:00 +17°C° 0 mm 8 mps 765 mmHg 87%
    21:00 +16°C° 0 mm 8 mps 764 mmHg 88%
    22:00 +16°C° 0 mm 8 mps 764 mmHg 88%
    23:00 +16°C° 0 mm 8 mps 764 mmHg 89%
    Show more